Location: Cheyres
(46.8153°N, 6.7877°E)
Time: 14:34:06
(UTC+00:00)

Cosmos 1328 Rocket - Pass Details

Date: 26 September 2021
Orbit: 601 x 627 km, 82.5° (Epoch: 20 October)

Event Time Altitude Azimuth Distance (km) Brightness Sun altitude
Exits shadow 03:23:56 45° 301° (WNW) 827 3.9 -21.1°
Drops below altitude 10° 03:27:43 10° 358° (N) 1,960 6.3 -20.5°
Sets 03:30:01 0° 5° (N) 2,866 7.3 -20.1°
